Presure
100 122 96 107 208 148 84 84 127 111 93 93 161 190 169 132 139 143 145 144 161 178 123 140 149 127 148 147 160 142 102 142 159 145 153 171 178 166 188 137 140 112 126
131 144 98 150 122 83 99 142 126 124 104 106 149 121 179 169 152 149 172 161 157 186 143 144 123 149 94 136 116 123 121 111 121 171 189 154 183 174 178 143 157 136 127
298 208 111 127 122 97 89 122 116 141 104 106 110 136 135 176 181 176 155 129 134 162 159 172 131 144 125 140 135 143 119 123 118 129 124 126 125 198 196 140 140 136 156
296 287 178 108 101 135 113 110 132 136 136 99 117 142 173 174 186 173 144 167 138 134 95 144 127 104 139 133 126 127 124 141 128 127 176 124 147 159 128 140 133 163 134
318 129 310 129 117 129 110 127 130 141 139 107 126 142 159 171 156 186 148 165 124 134 182 130 126 136 145 143 140 134 127 120 118 140 130 192 119 127 177 133 126 140 178
294 156 301 140 116 131 146 107 142 232 290 138 197 190 152 176 152 136 149 136 151 136 122 147 141 148 151 132 150 127 130 127 136 119 140 135 130 155 136 156 175 133 143
284 274 237 205 130 131 102 105 131 159 234 247 218 138 180 149 194 162 188 140 134 126 141 155 125 124 129 132 132 127 126 128 121 135 147 151 142 126 132 141 154 165 170
324 315 293 295 189 155 130 109 146 177 169 162 151 137 166 178 147 137 136 128 126 128 139 142 159 157 139 130 143 126 134 132 126 179 159 127 143 135 131 147 158 209 179
303 278 299 273 132 174 158 173 149 153 134 129 139 130 138 126 138 134 134 143 147 136 131 127 129 128 137 132 135 134 127 134 130 142 174 133 129 134 174 179 221 165 162
166 237 166 223 269 136 137 147 135 124 144 144 141 128 140 139 138 141 142 139 139 141 140 147 148 132 133 134 153 150 145 135 146 128 126 175 143 127 155 157 218 175 168
153 154 159 115 139 145 154 154 150 150 129 135 132 137 141 141 149 149 137 146 132 134 136 137 157 156 131 130 135 132 138 150 141 171 179 184 188 155 184 152 172 166 186
160 160 156 151 125 119 139 131 110 135 133 128 135 157 162 153 155 151 149 150 147 144 442 135 149 155 128 128 133 130 141 141 177 172 151 144 152 165 151 150 193 174 166
134 134 148 145 188 194 140 143 149 138 153 149 153 156 160 156 162 165 155 160 220 178 146 142 143 142 140 142 176 143 172 191 183 157 140 147 145 150 155 149 172 200 187
151 139 142 149 178 172 218 209 220 194 273 267 263 186 160 157 184 222 294 282 304 252 199 213 270 244 259 350 149 286 219 195 166 198 168 148 157 169 150 188 191 173 170
213 185 155 259 239 260 168 276 277 287 161 143 240 279 319 293 167 267 263 295 290 237 303 308 199 186 182 170 168 165 208 262 182 159 159 164 153 158 181 189 187 186 199
187 213 243 167 224 158 153 152 150 155 260 152 155 271 265 295 288 277 271 267 265 195 268 193 294 344 341 181 180 164 163 161 156 165 158 156 169 205 194 202 198 195 167
228 273 159 143 178 161 166 152 169 252 167 257 239 206 168 300 284 282 268 253 268 274 278 268 257 206 183 336 311 318 303 251 225 175 226 214 214 216 216 191 207 205 173
146 262 176 133 252 235 233 160 211 212 255 239 221 257 174 262 271 245 285 269 255 258 256 269 267 256 246 276 217 284 228 161 202 151 237 228 224 225 209 221 226 234 136
143 142 135 252 179 177 253 237 158 199 210 239 195 235 246 270 275 271 190 274 278 261 253 268 259 248 250 251 246 273 267 257 278 255 269 271 278 269 271 258 277 267 252
167 273 138 138 145 145 244 142 161 151 150 180 181 161 225 127 183 198 265 256 255 272 261 251 255 237 248 244 246 249 259 246 253 254 260 252 151 143 245 198 257 252 245
199 218 276 247 215 189 137 146 181 143 256 152 135 149 169 121 179 212 277 268 253 215 213 244 210 239 199 241 243 249 236 245 236 258 244 245 230 235 241 191 226 231 233
231 259 212 248 250 233 172 154 143 140 161 124 191 254 211 134 113 219 223 188 239 254 270 271 256 250 261 243 231 241 248 234 236 227 235 211 211 236 238 235 241 230 173
236 232 271 273 230 238 166 142 148 208 166 140 162 129 242 254 140 114 237 228 262 247 254 215 255 243 262 244 244 254 259 241 247 232 233 241 219 238 238 240 246 161 163
240 229 235 252 214 239 259 230 233 238 234 270 160 165 156 253 119 164 100 246 195 240 227 256 246 246 246 219 235 234 229 234 237 247 242 237 254 249 252 234 229 184 229
236 236 221 251 238 257 253 248 228 225 229 236 253 251 280 273 270 261 184 143 182 149 246 240 291 261 240 252 200 206 203 200 195 197 232 224 204 219 226 241 244 250 245
246 230 236 219 251 230 245 253 257 269 258 227 246 263 328 237 244 271 259 268 263 258 252 246 249 249 244 242 240 237 251 228 247 235 274 277 284 274 265 264 264 287 282
Wind_Speed
37 33 35 35 69 47 23 25 36 34 31 27 47 58 50 41 47 49 50 45 50 57 29 37 39 37 37 39 37 38 39 45 41 48 50 49 50 45 48 57 55 50 55
39 41 38 44 42 22 29 45 31 35 32 31 41 32 54 52 50 48 55 53 47 61 43 38 31 36 28 36 31 32 42 40 38 52 54 47 52 51 51 51 53 54 57
60 55 44 46 41 24 25 31 33 38 32 31 32 39 42 56 62 57 50 40 39 48 46 52 32 36 32 37 37 36 42 38 42 47 49 51 54 53 54 64 63 60 57
56 56 51 36 20 40 36 21 34 46 44 33 39 45 53 50 65 48 44 41 42 39 35 42 29 44 37 30 28 27 34 44 40 46 55 52 57 58 60 57 64 54 68
32 46 32 55 43 43 26 32 37 48 45 36 40 45 46 47 44 55 43 50 30 35 57 32 37 36 41 39 50 33 29 35 39 53 48 57 55 60 60 62 62 66 58
28 45 25 55 36 47 21 26 29 22 23 42 42 54 46 48 43 35 41 33 43 33 47 46 38 46 48 38 49 31 35 37 49 45 56 56 54 60 61 62 67 55 61
20 20 27 35 47 53 34 31 41 44 31 32 43 33 49 37 61 43 61 31 36 30 42 54 34 36 39 40 40 34 42 40 42 55 60 66 57 53 58 61 65 69 68
12 12 12 3 37 48 46 38 48 36 39 44 45 34 42 46 40 32 32 35 35 35 40 46 55 55 46 43 56 41 52 53 44 73 70 48 52 52 59 66 72 73 73
8 7 7 13 44 37 45 38 42 45 39 42 38 39 36 41 37 34 37 43 46 41 35 39 41 40 47 46 52 56 49 58 55 66 77 56 46 46 67 71 77 75 69
25 14 30 27 15 38 40 39 38 44 42 42 40 42 39 38 41 43 43 42 46 48 47 52 58 45 46 50 62 63 62 60 70 54 59 79 64 46 67 64 76 78 75
29 31 32 41 38 37 38 39 41 40 44 41 41 40 40 44 49 48 43 50 44 46 48 50 64 67 53 51 56 55 65 55 67 80 81 75 74 76 77 69 77 75 79
27 29 32 33 42 48 38 45 47 42 45 53 41 47 50 51 51 49 51 54 55 54 31 53 64 68 56 57 63 59 72 70 74 82 70 73 77 83 74 67 95 80 76
31 33 30 34 30 30 38 38 39 45 42 42 45 47 50 57 55 58 55 58 32 54 57 58 62 64 68 73 71 74 77 80 83 75 67 74 69 72 76 71 81 100 91
30 33 33 34 35 38 31 32 31 38 19 20 19 37 44 54 45 36 12 26 3 30 61 59 49 56 53 47 73 85 80 77 77 96 81 71 78 82 73 96 91 85 82
24 34 36 27 26 19 30 23 20 18 39 41 23 18 11 21 43 18 26 3 12 38 18 8 63 65 65 67 71 73 72 94 79 78 79 83 69 80 91 101 96 93 106
31 29 20 41 24 40 38 39 38 40 13 37 43 16 20 19 17 17 15 18 22 55 16 58 6 1 21 69 72 73 74 76 77 81 79 77 78 108 108 112 109 107 77
23 20 42 40 40 45 43 42 34 19 36 17 19 28 35 15 14 13 22 28 12 7 8 15 27 47 64 16 33 40 49 76 86 77 106 107 109 113 116 100 113 114 88
41 26 32 42 22 27 28 49 25 33 30 30 28 20 39 16 19 22 17 25 25 17 19 9 12 27 36 17 43 30 46 72 61 72 103 106 111 116 108 115 115 117 64
44 45 43 23 39 40 23 27 45 38 33 19 34 20 15 23 20 14 37 20 17 26 32 20 20 28 27 37 44 31 35 57 42 69 60 62 63 77 75 84 63 67 62
49 25 47 46 49 49 23 44 45 49 48 39 40 37 27 40 33 37 20 22 22 21 28 30 30 38 42 42 39 36 37 49 49 55 51 57 66 69 67 66 64 64 66
42 39 24 27 42 43 52 52 42 46 26 47 47 47 39 42 35 32 24 26 25 35 36 33 41 39 46 41 45 44 51 51 56 48 56 61 68 68 66 75 76 75 75
27 38 41 31 27 32 46 55 59 53 51 45 42 27 35 49 44 36 32 36 33 27 32 38 40 43 47 48 50 52 52 53 59 60 59 62 66 70 71 75 77 80 74
35 29 38 30 38 34 45 57 56 44 56 55 43 49 33 29 50 47 32 36 39 31 38 41 39 35 44 41 45 52 65 59 65 65 66 73 69 75 79 79 80 70 73
47 36 36 39 37 36 27 35 31 30 32 35 59 51 52 33 48 46 38 33 38 37 41 49 44 46 48 49 52 49 50 55 61 70 74 70 86 80 83 82 79 76 84
49 46 34 44 37 36 32 36 40 39 36 33 31 32 38 38 38 37 51 47 44 47 41 43 51 58 51 59 53 58 60 61 62 61 73 72 65 70 74 85 90 96 93
50 50 48 38 41 37 36 36 32 33 30 41 35 34 35 37 38 41 40 45 45 45 45 47 49 51 52 54 56 58 60 62 64 66 72 69 76 84 75 75 74 75 78
Wind_Direction
233 246 240 250 250 239 254 259 252 250 260 267 243 247 254 261 261 262 267 270 258 248 258 265 260 269 262 264 266 261 296 285 267 277 270 275 279 274 284 287 286 310 308
232 240 241 229 246 251 244 239 252 254 260 267 255 273 248 250 253 255 248 253 257 244 270 268 270 263 282 268 271 278 290 292 296 281 279 280 280 283 287 292 279 296 305
246 238 242 245 251 258 262 251 255 249 262 267 274 261 256 249 247 248 247 265 271 257 266 258 255 264 262 265 269 269 284 290 290 300 299 301 303 280 283 289 292 296 295
248 252 244 253 249 244 245 260 262 255 254 269 276 256 251 254 245 255 253 257 261 263 266 264 259 278 265 270 270 281 290 283 295 304 277 300 290 277 298 292 296 286 297
252 232 247 235 260 244 252 260 264 257 260 264 270 257 252 254 249 259 253 250 258 270 261 265 259 284 276 279 273 290 294 286 290 292 298 273 301 297 283 291 304 290 281
242 229 248 229 266 249 249 264 280 259 251 264 250 247 255 256 259 263 256 265 259 274 269 265 283 284 279 275 285 275 289 292 290 290 293 291 291 286 293 287 284 296 290
240 234 238 228 248 250 246 266 267 248 252 255 250 251 250 260 252 261 255 256 254 257 280 259 269 273 286 288 292 287 285 284 287 297 289 288 287 295 295 294 291 286 287
199 211 239 217 235 234 250 257 253 247 246 247 253 259 252 251 261 260 262 250 247 254 277 279 265 265 284 287 284 288 290 291 286 269 283 293 285 298 295 292 289 270 281
219 231 224 222 243 233 240 239 248 248 252 248 257 251 263 251 267 262 263 274 277 264 264 262 268 271 282 281 283 284 287 290 292 290 273 288 290 294 287 280 269 288 290
226 231 221 235 247 243 244 244 247 245 250 253 254 251 263 266 266 268 271 273 271 272 272 274 277 277 279 281 273 275 277 287 283 282 291 273 289 289 283 291 267 285 290
228 231 232 246 241 241 242 243 245 248 247 253 253 258 262 263 262 265 271 270 273 277 279 279 268 268 282 282 285 282 285 267 283 271 267 263 260 286 276 295 288 289 277
239 240 239 240 238 246 241 236 268 243 244 245 254 264 263 266 266 264 264 263 264 266 244 272 268 267 280 281 280 278 280 282 260 269 280 283 284 282 293 297 271 289 288
233 237 249 245 246 244 247 252 251 245 263 262 265 267 267 266 266 263 262 263 273 256 263 265 265 266 269 270 262 273 265 253 258 273 280 282 287 289 288 295 284 266 280
260 241 248 262 264 265 262 275 266 266 288 297 293 266 263 266 266 268 270 284 340 257 257 258 250 252 249 238 267 225 240 250 264 249 271 282 284 283 290 267 271 284 285
279 263 261 265 281 304 255 278 285 253 266 257 282 305 295 256 269 247 269 309 307 255 41 23 250 255 256 260 261 264 247 223 256 274 277 276 285 285 273 267 274 276 272
260 282 303 260 279 264 266 266 264 274 283 260 275 293 296 248 245 233 247 247 269 257 228 256 93 223 217 253 256 263 264 267 272 271 275 280 270 254 263 260 267 274 287
296 319 262 260 268 264 264 264 259 290 259 290 277 274 266 247 254 235 223 245 237 157 125 202 223 251 255 198 223 216 229 236 238 263 238 246 250 252 253 262 262 264 275
267 313 265 255 299 279 279 263 277 274 282 282 273 288 271 282 253 260 249 227 241 240 246 213 192 218 220 212 251 212 247 269 264 277 238 243 247 250 257 260 262 262 283
265 265 261 299 265 263 292 281 264 276 274 285 271 286 305 255 260 245 268 240 236 228 247 202 199 219 220 229 224 216 220 227 236 230 236 241 245 246 249 251 253 257 263
262 312 263 266 265 266 281 266 257 262 266 265 269 265 274 274 262 270 232 245 239 229 231 239 220 238 220 232 236 230 231 237 240 242 238 246 277 280 253 268 255 257 260
280 292 319 300 266 271 268 265 264 264 284 262 266 269 269 267 267 267 241 243 245 257 260 241 255 242 253 247 245 239 244 240 250 248 247 249 256 257 254 267 264 262 262
300 316 285 298 297 282 270 254 259 266 261 269 273 285 272 261 265 270 266 272 259 265 242 228 234 239 238 247 252 249 242 250 247 261 263 263 259 261 259 261 260 266 271
302 302 314 313 291 290 266 258 263 274 261 260 278 272 280 281 264 272 271 271 255 270 258 259 259 259 244 255 257 252 241 258 247 261 262 257 263 260 261 264 260 276 278
300 294 301 304 282 285 294 280 279 284 285 277 263 263 264 275 272 267 268 268 268 269 270 252 262 265 266 264 269 256 257 264 266 259 262 268 260 262 259 268 271 275 272
292 295 282 302 295 306 289 290 278 277 277 281 283 283 275 277 276 275 259 269 269 275 264 265 257 255 264 260 266 265 265 267 270 270 261 266 269 269 270 270 268 267 270
288 287 290 281 297 288 295 300 298 306 288 276 288 287 279 281 281 275 278 274 274 273 272 270 268 266 265 264 264 266 265 268 265 268 262 264 264 264 267 268 268 268 269